Regional Weather Roundup
Issued by NWS

Home | Current Version | Previous Version | Graphics & Text | Print | Product List | Glossary On
Versions: 1 2 3 4 5 6 7 8 9 10 11 12 13 14 15 16 17 18 19 20 21 22 23 24 25 26 27 28 29 30 31 32 33 34 35 36 37 38 39 40 41 42 43 44 45 46 47 48 49 50
000
ASUS45 KTFX 010610
RWRMT
MONTANA REGIONAL WEATHER ROUNDUP
NATIONAL WEATHER SERVICE GREAT FALLS MT
1200 AM MDT WED JUL 01 2015

NOTE: "FAIR" INDICATES FEW OR NO CLOUDS BELOW 12000 FEET WITH NO
SIGNIFICANT WEATHER AND/OR OBSTRUCTIONS TO VISIBILITY.

MTZ001>007-043-010700-
WEST OF THE DIVIDE

CITY           SKY/WX    TMP DP  RH WIND       PRES   REMARKS
KALISPELL      CLEAR     64  51  62 CALM      29.99
MISSOULA       CLEAR     70  46  42 CALM      30.03
BUTTE          CLEAR     63  46  54 SE3       30.18
MULLAN PASS    CLEAR     64  43  46 NW3       30.22
DEER LODGE       N/A     64  45  48 W3        30.15R
EUREKA           N/A     70  54  56 CALM      29.99S
HAMILTON         N/A     68  54  60 SW2       30.06R
PLAINS           N/A     68  50  52 CALM      30.01R
RONAN            N/A     62  54  75 CALM      30.06R
$$

MTZ008-052>055-010700-
SOUTHWEST MONTANA

CITY           SKY/WX    TMP DP  RH WIND       PRES   REMARKS
BOZEMAN        CLEAR     64  52  64 SE10      30.09R
DILLON         PTCLDY    68  46  45 E6        30.13
W YELLOWSTONE  PTCLDY    64  52  63 CALM      30.25R
THREE FORKS      N/A     64  64 100 CALM      30.06R
TWIN BRIDGES     N/A     76  40  27 N10       30.09R
$$

MTZ009-010-012-014-046-048-049-054-010700-
EAST SLOPES AND CENTRAL MONTANA

CITY           SKY/WX    TMP DP  RH WIND       PRES   REMARKS
GREAT FALLS    CLEAR     68  53  58 E7        30.05
MALMSTROM AFB  CLEAR     67  54  63 E5        30.05R
HELENA         CLEAR     74  45  35 W10       30.02
CONRAD           N/A     64  60  87 CALM      30.08R
$$

MTZ011-013-016-021-045-047-050-051-010700-
NORTH CENTRAL MONTANA

CITY           SKY/WX    TMP DP  RH WIND       PRES   REMARKS
HAVRE          CLEAR     67  55  65 E5        29.99  HAZE
CHINOOK          N/A     64  55  72 W5        29.98R
FORT BENTON      N/A     70  54  56 CALM      30.02R
$$

MTZ017>020-022>027-061-062-010700-
NORTHEAST MONTANA

CITY           SKY/WX    TMP DP  RH WIND       PRES   REMARKS
JORDAN           N/A     72  56  57 N8        29.92S
SIDNEY         PTCLDY    64  57  77 N3        29.92R
WOLF POINT     CLEAR     64  58  80 NE8       29.92  HAZE
MALTA            N/A     68  57  67 N2        29.91R
PLENTYWOOD       N/A     61  61 100 N5        29.95R
POPLAR           N/A     64  61  88 NE5       29.92R
SCOBEY           N/A     59  53  80 CALM      29.94F
$$

MTZ028>42-056>058-010700-
SOUTHCENTRAL AND SOUTHEAST MONTANA

CITY           SKY/WX    TMP DP  RH WIND       PRES   REMARKS
BAKER          CLEAR     63  60  90 SE7       29.92
BILLINGS       PTCLDY    76  46  34 NE7       30.03R
LIVINGSTON     CLEAR     73  47  39 SE15      30.09
MILES CITY     CLEAR     74  53  48 NW12      29.90
EKALAKA          N/A     64  57  78 SE3       29.93S
FORSYTH          N/A     75  54  46 CALM      29.94R
LAUREL           N/A     72  44  36 N2        30.03R
ROUNDUP          N/A     72  49  44 MISG      29.94R
$$

REGIONAL REPORTS...DAKOTAS

CITY           SKY/WX    TMP DP  RH WIND       PRES   REMARKS
WILLISTON      MOCLDY    67  60  78 NE6       29.92
MINOT          PTCLDY    64  62  93 SW3       29.90R FOG
DICKINSON      CLOUDY    64  62  93 E13       29.90S FOG
BEACH          LGT RAIN  63  63 100 SE8       29.92R
CROSBY         FOG       57  57 100 NW3       29.96R VSB<1/4
BISMARCK       MOCLDY    64  63  96 SE12      29.90F
GRAND FORKS    MOCLDY    61  58  90 CALM      29.91
FARGO          CLOUDY    66  60  81 CALM      29.91
BUFFALO SD       N/A     65  60  84 W5        29.85S
RAPID CITY     PTCLDY    70  67  90 W7        29.92R
$$

REGIONAL REPORTS...WYOMING/IDAHO/WASHINGTON

CITY           SKY/WX    TMP DP  RH WIND       PRES   REMARKS
GILLETTE       CLEAR     61  56  83 W3        30.03
SHERIDAN       PTCLDY    73  47  39 W8        30.03
BUFFALO WY     CLOUDY    69  49  48 N7        30.11
CODY           PTCLDY    68  48  49 CALM      30.12S
YELLOWSTONE LA   N/A     54  47  77 CALM      30.36R
IDAHO FALLS    MOCLDY    62  59  90 NW6       30.09
SALMON         CLEAR     73  48  40 S7        30.05R
BOISE          CLEAR     85  47  26 W7        29.94
SPOKANE        PTCLDY    81  48  31 SW3       29.97
$$

REGIONAL REPORTS...ALBERTA

CITY           SKY/WX    TMP DP  RH WIND       PRES   REMARKS
EDMONTON       PTCLDY    61  55  82 S2        29.97S
CALGARY        MOCLDY    64  55  72 W5        30.08S
LETHBRIDGE     MOCLDY    64  59  82 SW2       30.04R HAZE
MEDICINE HAT   CLEAR     63  54  72 NE5       30.01R HAZE
CARDSTON         N/A     64  59  82 SW3         N/A
MILK RIVER       N/A     61  55  82 NW5         N/A
ONEFOUR          N/A     61  52  72 NE10        N/A
$$

REGIONAL REPORTS...SASKATCHEWAN

CITY           SKY/WX    TMP DP  RH WIND       PRES   REMARKS
SWIFT CURRENT  CLOUDY    59  57  94 E3        30.01R FOG
REGINA         PTCLDY    55  54  94 N6        29.97R SMOKE
SASKATOON      CLEAR     61  59  94 SW7       29.95F
CYPRESS HILLS    N/A     54  52  94 NE2         N/A
ROCKGLEN         N/A     57  57 100 NW2         N/A
ASSINIBOIA       N/A     66  61  82 SE1         N/A
$$



USA.gov is the U.S. government's official web portal to all federal, state and local government web resources and services.